Weather reports worldwide

Advertisment
Topcliffe, United Kingdom (3265): temperature & dewpoint: 11.08.2017 08:00:00 - 17.08.2017 08:00:00 (BST)Topcliffe, United Kingdom (3265): wind speed & gusts: 11.08.2017 08:00:00 - 17.08.2017 08:00:00 (BST)Topcliffe, United Kingdom (3265): wind direction: 11.08.2017 08:00:00 - 17.08.2017 08:00:00 (BST)Topcliffe, United Kingdom (3265): reduced air pressure: 11.08.2017 08:00:00 - 17.08.2017 08:00:00 (BST)Topcliffe, United Kingdom (3265): visibility: 11.08.2017 08:00:00 - 17.08.2017 08:00:00 (BST)Topcliffe, United Kingdom (3265): precipitation: 11.08.2017 08:00:00 - 17.08.2017 08:00:00 (BST)
Date & Time tt [°C] td [°C] ff [km/h] ff [kn] fx [km/h] fx [kn] dd ppp [hPa] vv [km] rr [mm]
17.08.2017 08:00:00 14,2 13,9 16 9 - - SSE 1006,9 9 0,0
17.08.2017 07:00:00 13,5 13,3 16 9 - - SE 1006,6 8 0,2
17.08.2017 06:00:00 13,5 13,1 16 9 - - ESE 1006,7 6 0,8
17.08.2017 05:00:00 13,6 13,2 16 9 - - SSE 1007,1 11 0,8
17.08.2017 04:00:00 13,7 13,3 18 10 - - SE 1007,2 8 1,8
17.08.2017 03:00:00 13,8 13,4 18 10 - - SSE 1008,5 0,2 4,4
17.08.2017 02:00:00 14,2 13,3 21 11 - - SSE 1008,8 10 1,8
17.08.2017 01:00:00 16,3 12,5 28 15 - - S 1009,2 30 0,0
17.08.2017 00:00:00 17,4 12,3 22 12 - - SSE 1009,9 50 0,0
16.08.2017 23:00:00 17,8 12,4 21 11 - - S 1010,5 50 0,0
16.08.2017 22:00:00 18,3 11,9 24 13 - - SSE 1011,3 50 0,0
16.08.2017 21:00:00 18,6 11,3 22 12 - - S 1011,8 45 0,0
16.08.2017 20:00:00 18,8 11,1 21 11 - - S 1012,0 45 0,0
16.08.2017 19:00:00 19,5 10,6 26 14 - - S 1012,7 45 0,0
16.08.2017 18:00:00 19,9 9,9 28 15 - - SSW 1013,4 40 0,0
16.08.2017 17:00:00 19,8 10,5 28 15 - - S 1013,7 50 0,0
16.08.2017 16:00:00 20,7 9,7 28 15 - - SSW 1014,4 10 0,0
16.08.2017 15:00:00 19,9 10,2 24 13 - - SSW 1015,1 10 0,0
16.08.2017 14:00:00 20,1 10,1 28 15 - - SSW 1015,8 10 0,0
16.08.2017 13:00:00 18,9 10,2 22 12 - - S 1015,8 50 0,0
16.08.2017 12:00:00 18,6 10,1 24 13 - - S 1016,5 10 0,0
16.08.2017 11:00:00 17,5 10,7 21 11 - - S 1017,4 10 0,0
16.08.2017 10:00:00 15,4 11,5 18 10 - - S 1017,8 10 0,0
16.08.2017 09:00:00 13,4 11,5 16 9 - - SSE 1018,1 10 0,0
16.08.2017 08:00:00 11,4 10,7 15 8 - - SSE 1018,0 26 0,0
16.08.2017 07:00:00 8,5 8,5 5 3 - - SSE 1018,2 7 0,0
16.08.2017 06:00:00 7,4 7,2 9 5 - - SE 1018,0 5 0,0
16.08.2017 05:00:00 7,3 7,1 8 4 - - SE 1018,0 0,4 0,0
16.08.2017 04:00:00 8,1 7,9 13 7 - - SE 1018,1 11 0,0
16.08.2017 03:00:00 7,3 6,8 8 4 - - E 1018,0 7 0,0
16.08.2017 02:00:00 9,1 8,7 9 5 - - SE 1018,0 40 0,0
16.08.2017 01:00:00 9,2 8,8 2 1 - - SE 1018,0 29 0,0
16.08.2017 00:00:00 9,7 8,4 2 1 - - SE 1018,0 50 0,0
15.08.2017 23:00:00 10,3 9,1 5 3 - - E 1017,6 50 0,0
15.08.2017 22:00:00 13,6 9,6 9 5 - - SW 1016,9 50 0,0
15.08.2017 21:00:00 15,1 9,3 13 7 - - WSW 1016,5 50 0,0
15.08.2017 20:00:00 16,8 8,7 18 10 - - W 1016,0 50 0,0
15.08.2017 19:00:00 18,0 8,7 21 11 - - W 1015,3 45 0,0
15.08.2017 18:00:00 18,8 9,2 21 11 - - W 1014,8 50 0,0
15.08.2017 17:00:00 18,5 9,1 26 14 - - W 1014,5 50 0,0
15.08.2017 16:00:00 19,5 9,5 34 18 54 29 WSW 1013,9 10 0,0
15.08.2017 15:00:00 19,2 9,7 31 17 46 25 W 1013,3 10 0,0
15.08.2017 14:00:00 20,0 11,5 26 14 - - WSW 1012,9 10 0,0
15.08.2017 13:00:00 18,5 12,1 18 10 - - WSW 1012,4 10 0,0
15.08.2017 12:00:00 17,6 11,5 21 11 - - W 1012,2 10 0,4
15.08.2017 11:00:00 18,6 11,8 26 14 - - WSW 1011,7 40 0,0
15.08.2017 10:00:00 17,6 11,9 21 11 - - W 1011,2 10 0,0
15.08.2017 09:00:00 16,5 12,9 9 5 - - SW 1011,0 10 0,0
15.08.2017 08:00:00 15,7 13,9 11 6 - - S 1010,5 40 0,0
15.08.2017 07:00:00 14,1 13,3 16 9 - - SE 1010,0 35 0,0
15.08.2017 06:00:00 12,7 12,4 15 8 - - SE 1009,6 10 0,0
15.08.2017 05:00:00 12,7 11,9 11 6 - - S 1009,5 15 0,0
15.08.2017 04:00:00 14,1 13,4 16 9 - - S 1009,8 19 0,0
15.08.2017 03:00:00 14,5 13,7 15 8 - - SSE 1010,1 30 0,0
15.08.2017 02:00:00 14,9 13,9 16 9 - - SSE 1010,5 30 0,4
15.08.2017 01:00:00 15,6 14,0 21 11 - - S 1010,8 19 0,2
15.08.2017 00:00:00 16,6 13,7 21 11 - - SSE 1011,1 35 0,0
14.08.2017 23:00:00 16,5 13,6 15 8 - - SSE 1011,6 40 0,0
14.08.2017 22:00:00 16,6 13,2 21 11 - - SSE 1012,0 35 0,0
14.08.2017 21:00:00 16,4 13,0 13 7 - - ESE 1012,3 45 0,0
14.08.2017 20:00:00 18,0 13,0 16 9 - - SSE 1012,6 30 0,0
14.08.2017 19:00:00 18,6 12,9 15 8 - - S 1013,0 50 0,0
14.08.2017 18:00:00 19,3 12,8 24 13 - - S 1013,3 40 0,0
14.08.2017 17:00:00 19,3 12,4 28 15 - - S 1013,5 50 0,0
14.08.2017 16:00:00 19,3 12,4 26 14 - - SSE 1013,8 10 0,0
14.08.2017 15:00:00 19,6 11,8 26 14 - - S 1014,3 10 0,0
14.08.2017 14:00:00 19,5 12,1 22 12 - - S 1014,9 27 0,0
14.08.2017 13:00:00 18,0 10,7 26 14 - - S 1015,6 10 0,0
14.08.2017 12:00:00 17,5 11,1 28 15 - - SSE 1015,9 50 0,0
14.08.2017 11:00:00 15,8 10,8 22 12 - - S 1016,5 10 0,0
14.08.2017 10:00:00 15,4 12,3 15 8 - - SSE 1016,7 10 0,0
14.08.2017 09:00:00 13,7 12,1 13 7 - - SSE 1017,0 10 0,2
14.08.2017 08:00:00 13,5 12,0 13 7 - - SSE 1017,1 17 0,0
14.08.2017 07:00:00 13,1 11,6 15 8 - - SE 1017,2 20 0,0
14.08.2017 06:00:00 12,9 11,3 15 8 - - SE 1017,2 30 0,0
14.08.2017 05:00:00 12,5 10,7 13 7 - - ESE 1017,7 30 0,0
14.08.2017 04:00:00 12,3 10,6 11 6 - - SE 1018,3 30 0,0
14.08.2017 03:00:00 12,2 10,1 11 6 - - SE 1018,8 40 0,0
14.08.2017 02:00:00 12,7 10,3 13 7 - - SE 1019,3 30 0,0
14.08.2017 01:00:00 12,6 10,0 11 6 - - SE 1019,9 35 0,0
14.08.2017 00:00:00 12,0 9,4 9 5 - - ESE 1020,1 45 0,0
13.08.2017 23:00:00 12,0 9,6 13 7 - - ESE 1020,5 45 0,0
13.08.2017 22:00:00 12,4 9,8 13 7 - - ESE 1020,6 50 0,0
13.08.2017 21:00:00 13,9 10,1 16 9 - - E 1020,3 50 0,0
13.08.2017 20:00:00 16,9 7,1 9 5 - - SSW 1020,1 50 0,0
13.08.2017 19:00:00 18,8 6,1 15 8 - - SSW 1020,2 30 0,0
13.08.2017 18:00:00 19,7 6,3 2 1 - - NW 1020,2 35 0,0
13.08.2017 17:00:00 19,1 6,6 11 6 - - WSW 1020,4 40 0,0
13.08.2017 16:00:00 19,1 5,4 13 7 - - W 1020,5 50 0,0
13.08.2017 15:00:00 18,8 4,6 5 3 - - NW 1020,7 45 0,0
13.08.2017 14:00:00 19,2 4,1 11 6 - - WNW 1020,6 50 0,0
13.08.2017 13:00:00 18,3 6,5 11 6 - - W 1020,8 50 0,0
13.08.2017 12:00:00 16,5 6,9 15 8 - - NW 1021,1 50 0,0
13.08.2017 11:00:00 16,4 8,2 11 6 - - NNW 1021,0 50 0,0
13.08.2017 10:00:00 14,9 7,5 11 6 - - NW 1021,0 45 0,0
13.08.2017 09:00:00 13,5 8,8 13 7 - - NNW 1020,7 27 0,0
13.08.2017 08:00:00 10,9 8,8 8 4 - - NW 1020,4 25 0,0
13.08.2017 07:00:00 6,8 6,5 2 1 - - WNW 1020,2 30 0,0
13.08.2017 06:00:00 5,6 4,7 4 2 - - NW 1019,8 40 0,0
13.08.2017 05:00:00 6,5 6,1 4 2 - - SSW 1019,5 28 0,0
13.08.2017 04:00:00 8,8 8,5 5 3 - - NNW 1019,2 50 0,0
13.08.2017 03:00:00 9,1 8,8 2 1 - - S 1019,0 0,8 0,0
13.08.2017 02:00:00 10,0 9,6 2 1 - - NW 1018,9 16 0,0
13.08.2017 01:00:00 9,0 8,6 4 2 - - SSW 1018,9 8 0,0
13.08.2017 00:00:00 9,9 9,6 4 2 - - NNE 1018,5 4,5 0,0
12.08.2017 23:00:00 11,1 9,9 2 1 - - SW 1018,2 5 0,0
12.08.2017 22:00:00 13,5 11,8 5 3 - - W 1018,1 50 0,0
12.08.2017 21:00:00 14,2 11,9 8 4 - - NNW 1017,6 35 0,0
12.08.2017 20:00:00 14,7 11,6 8 4 - - N 1017,0 22 0,0
12.08.2017 19:00:00 15,2 11,4 9 5 - - N 1016,2 45 0,0
12.08.2017 18:00:00 16,2 12,0 18 10 - - NNW 1015,8 50 0,0
12.08.2017 17:00:00 15,2 12,4 15 8 - - NNE 1015,1 50 0,0
12.08.2017 16:00:00 15,4 13,8 24 13 - - N 1014,6 16 0,0
12.08.2017 15:00:00 18,9 12,7 24 13 - - NW 1013,4 50 0,0
12.08.2017 14:00:00 19,4 11,3 24 13 - - WNW 1013,0 40 0,0
12.08.2017 13:00:00 20,2 11,9 24 13 - - W 1012,6 40 0,0
12.08.2017 12:00:00 19,0 11,7 22 12 - - W 1012,4 45 0,0
12.08.2017 11:00:00 18,3 11,4 26 14 - - W 1012,3 50 0,0
12.08.2017 10:00:00 17,8 11,8 21 11 - - W 1012,0 50 0,0
12.08.2017 09:00:00 15,8 11,6 9 5 - - WSW 1012,0 45 0,0
12.08.2017 08:00:00 14,6 10,7 13 7 - - W 1011,7 50 0,0
12.08.2017 07:00:00 12,6 10,5 4 2 - - SE 1011,4 45 0,0
12.08.2017 06:00:00 10,8 9,7 2 1 - - NNE 1011,1 40 0,0
12.08.2017 05:00:00 13,9 11,3 11 6 - - W 1010,7 50 0,0
12.08.2017 04:00:00 15,4 11,9 15 8 - - W 1010,4 50 0,0
12.08.2017 03:00:00 15,3 12,7 8 4 - - WSW 1010,7 50 0,0
12.08.2017 02:00:00 15,5 13,9 5 3 - - W 1010,7 50 0,0
12.08.2017 01:00:00 16,2 14,6 9 5 - - W 1010,8 45 0,0
12.08.2017 00:00:00 16,3 15,2 9 5 - - SW 1011,0 35 0,0
11.08.2017 23:00:00 16,3 15,2 11 6 - - SSW 1011,3 40 0,0
11.08.2017 22:00:00 16,4 15,6 11 6 - - SSW 1011,6 30 0,0
11.08.2017 21:00:00 16,9 15,5 16 9 - - SW 1011,6 50 0,0
11.08.2017 20:00:00 16,9 15,7 16 9 - - SSW 1011,5 50 0,2
11.08.2017 19:00:00 16,7 15,7 16 9 - - SW 1011,9 8 0,0
11.08.2017 18:00:00 17,9 14,8 18 10 - - SW 1012,1 50 0,0
11.08.2017 17:00:00 18,2 14,3 16 9 - - SSW 1012,4 45 0,0
11.08.2017 16:00:00 18,0 13,5 16 9 - - SSW 1012,9 10 0,0
11.08.2017 15:00:00 18,0 12,9 18 10 - - SSW 1013,2 10 0,0
11.08.2017 14:00:00 17,2 13,2 16 9 - - SSW 1013,8 10 0,0
11.08.2017 13:00:00 16,1 12,2 13 7 - - SSW 1014,5 10 0,0
11.08.2017 12:00:00 15,7 11,8 16 9 - - S 1015,0 10 0,0
11.08.2017 11:00:00 15,6 11,2 22 12 - - SW 1015,4 10 0,0
11.08.2017 10:00:00 15,1 11,5 16 9 - - SSW 1016,1 10 0,0
11.08.2017 09:00:00 15,2 11,5 16 9 - - SSW 1016,4 10 0,0
11.08.2017 08:00:00 12,1 10,4 5 3 - - S 1016,9 17 0,0

tt = temperature
td = dewpoint
ff = wind speed
fx = gusts
dd = wind direction
ppp = reduced air pressure
vv = visibility
rr = precipitation

Next stations